Lexington Weather

Lexington, Massachusetts, USA

56°F
10/22/2020 7:54pm 
  • Lexington Conditions: Mostly cloudy
  • Temperature: 55.8°F / 13.2°CColder 0.3°F than last hour.
  • Dew Point: 54.3°FDecreased 0.4°Fsince last hour.
  • Relative Humidity: 95
  • Wind: Wind from NW NW 1 mph, 10-min avg: 1 mph, gust: 3 mph
  • Barometer: 30.22 in Steady
  • Visibility: 7 miles
  • Rain Today: 0.00 in
  •   
Southeast Middlesex County - Special Weather Statement
 - SEE ALL NEARBY ALERTS -

Regional Weather Roundup
for Boston / Norton, MA

        
000
ASUS41 KBOX 221104
RWRBOX

REGIONAL WEATHER ROUNDUP
NATIONAL WEATHER SERVICE BOSTON/NORTON MA
700 AM EDT THU OCT 22 2020

NOTE:  "FAIR" INDICATES FEW OR NO CLOUDS BELOW 12,000 FEET WITH NO 
SIGNIFICANT WEATHER AND/OR OBSTRUCTIONS TO VISIBILITY.

MAZALL-221200-
EASTERN MASSACHUSETTS
  
CITY           SKY/WX    TMP DP  RH WIND       PRES   REMARKS
BOSTON         PTCLDY    62  60  93 W5        30.23R                  
BEVERLY        CLEAR     58  57  97 NW6       30.21R                  
LAWRENCE       FOG       56  56 100 CALM      30.24R VSB 1/4          
BEDFORD        FOG       52  52 100 CALM      30.22R VSB 1/2          
BLUE HILL        N/A     61  59  93 W9        30.23R                  
NORWOOD        FOG       54  52  93 CALM      30.23R VSB 1/4          
MARSHFIELD     FOG       64  64 100 W3        30.23R VSB 3/4          
PLYMOUTH       FOG       63  62  97 CALM      30.23R VSB 3/4          
TAUNTON        FOG       60  58  92 CALM      30.23R VSB 1/4          
NEW BEDFORD    FOG       63  62  97 S3        30.23R VSB 1/4          
$$

MAZALL-221200-
CAPE COD AND THE ISLANDS
  
CITY           SKY/WX    TMP DP  RH WIND       PRES   REMARKS
FALMOUTH       FOG       63  63 100 W5        30.24R VSB 0            
HYANNIS        FOG       62  62 100 W5        30.22S VSB 1/4          
CHATHAM        FOG       61  60  97 CALM      30.24S VSB 1/2          
PROVINCETOWN   FOG       61  61 100 SW7       30.24R VSB 1/4          
NANTUCKET      FOG       63  61  93 W5        30.24R VSB 1/4          
MARTHAS VNYRD  FOG       62  62 100 SW3       30.23S VSB 1/2          
$$
 
MAZALL-221200-
CENTRAL AND WESTERN MASSACHUSETTS
  
CITY           SKY/WX    TMP DP  RH WIND       PRES   REMARKS
WORCESTER      CLEAR     60  57  89 W8        30.25R                  
FITCHBURG      FOG       54  54 100 CALM      30.25R VSB 3/4          
ORANGE         FOG       53  52  96 CALM      30.25S VSB 1/4          
SPRINGFIELD    CLEAR     56  56 100 CALM      30.23R                  
WESTFIELD      CLEAR     57  55  93 CALM      30.24S                  
NORTH ADAMS    PTCLDY    58  52  80 W6        30.26S                  
PITTSFIELD     MOCLDY    58  51  78 SW3       30.25F                  
$$
 
RIZALL-221200-
RHODE ISLAND
  
CITY           SKY/WX    TMP DP  RH WIND       PRES   REMARKS
PROVIDENCE     FOG       62  62 100 CALM      30.24R VSB 1            
NEWPORT        FOG       60  60 100 S3        30.24R VSB<1/4          
BLOCK ISLAND   FOG       61  61 100 CALM      30.25R VSB 1/2          
SMITHFIELD     MOCLDY    62  62 100 NW3         N/A                   
WESTERLY       FOG       63  62  97 CALM      30.24R VSB 1/2          
$$
 
CTZALL-221200-
CONNECTICUT
  
CITY           SKY/WX    TMP DP  RH WIND       PRES   REMARKS
BRADLEY INTL   MOCLDY    61  58  90 N8        30.24R                  
HARTFORD       CLOUDY    65  63  93 N5        30.24R FOG              
BRIDGEPORT     FOG       63  63 100 CALM      30.23R VSB 1/4          
DANBURY        CLOUDY    64  61  90 NW6       30.26R                  
GROTON         FOG       63  63 100 CALM      30.23S VSB 1            
NEW HAVEN      FOG       64  64 100 E3        30.23R VSB 1/4          
CHESTER        CLOUDY    64  64 100 CALM      30.24S FOG              
MERIDEN        FOG       64  63  96 CALM      30.24R VSB 3/4          
WILLIMANTIC    CLOUDY    65  63  93 CALM      30.24R                  
OXFORD         CLOUDY    63  63 100 NW5       30.26R FOG              
$$

MEZ002-015-021-024-NHZ003-005-008-011-012-014-VTZ005-008-221200-
NORTHERN NEW ENGLAND
  
CITY           SKY/WX    TMP DP  RH WIND       PRES   REMARKS
PORTLAND ME    FOG       52  52 100 CALM      30.23R VSB 1/4          
BANGOR ME      FOG       48  47  96 N5        30.23F VSB 1/4          
CONCORD NH     FOG       46  44  93 CALM      30.24S VSB 1/2          
MANCHESTER NH  PTCLDY    57  54  89 N6        30.22R                  
NASHUA NH      PTCLDY    55  55 100 W3        30.24R                  
PORTSMOUTH NH  PTCLDY    53  53 100 CALM      30.21S                  
JAFFREY NH     FOG       51  50  96 CALM      30.25F VSB 1            
KEENE NH       FOG       52  52 100 CALM      30.25S VSB 1/2          
BURLINGTON VT  PTCLDY    46  43  89 CALM      30.28R                  
MT. WASHINGTON MOCLDY    39   7  26 W45G53      N/A  WCI  25          
$$

NYZ052-076-221200-
EASTERN NEW YORK
  
CITY           SKY/WX    TMP DP  RH WIND       PRES   REMARKS
ALBANY         PTCLDY    49  49 100 CALM      30.27S                  
NEW YORK CITY  PTCLDY    65  62  90 NE3       30.22R                  
$$
 
ANZALL-221200-
MARINE OBSERVATIONS
  
STATION/POSITION TIME  TEMP    WIND        PRES    VSBY  WAVE
                       AIR SEA DIR/SP/G                  HT/PER
                 (UTC) (F)     (DEG/KT/KT) (MB)    (MI)  (FT/S)
BOSTON BUOY      1050   60 58  180/  4/  6 1022.4R         3/11
BUZZARDS BAY     1000          230/  6/  7 1024.7R
NANTUCKET SOUND  1050      62  270/  4/  6   N/A           1/ 8
MASS BAY-STELLWA 1004   59 58  270/  4/  6 1022.2R  1 7/8  3/11
ISLE OF SHOALS   1000   59     320/  9/  9 1022.6R
S OF BLOCK IS    1026      63                N/A           3/10
$$

......................KEY.........................
  SKY/WX - SKY CONDITION/PRESENT WEATHER
  TMP    - TEMPERATURE IN FAHRENHEIT
  DWPT   - DEWPOINT IN FAHRENHEIT
  RH     - RELATIVE HUMIDITY IN PERCENT
  WIND   - DIRECTION AND SPEED IN MPH
  PRES   - MEAN SEA LEVEL PRESSURE IN INCHES OF HG
  WCI    - WIND CHILL INDEX
  VSB    - VISIBILITY IN MILES
  HX     - HEAT INDEX
  TC     - TEMPERATURE IN CELSIUS
  VRB    - VARIABLE WIND DIRECTION
  N/A    - NOT AVAILABLE
  
      

Other recent Regional Weather Roundups

Thu Oct 22, 7:05pm

Thu Oct 22, 6:04pm

Thu Oct 22, 5:04pm

Thu Oct 22, 4:05pm

Thu Oct 22, 3:04pm

Thu Oct 22, 2:05pm

Thu Oct 22, 1:04pm

Thu Oct 22, 12:04pm

Thu Oct 22, 11:04am

Thu Oct 22, 10:05am

Thu Oct 22, 9:04am

Thu Oct 22, 8:05am

Thu Oct 22, 6:04am

Thu Oct 22, 5:04am

Thu Oct 22, 4:04am

Thu Oct 22, 3:04am

Thu Oct 22, 2:04am

Thu Oct 22, 1:04am

Thu Oct 22, 12:04am

Wed Oct 21, 11:05pm

Wed Oct 21, 10:04pm

Wed Oct 21, 9:04pm

Wed Oct 21, 8:04pm

Wed Oct 21, 7:04pm

Wed Oct 21, 6:04pm

Wed Oct 21, 5:05pm

Wed Oct 21, 4:04pm

Wed Oct 21, 3:04pm

Wed Oct 21, 2:05pm

Wed Oct 21, 1:04pm

Wed Oct 21, 12:04pm

Wed Oct 21, 11:04am

Wed Oct 21, 10:04am

Wed Oct 21, 9:04am

Wed Oct 21, 8:04am

Wed Oct 21, 7:04am

Wed Oct 21, 6:04am

Wed Oct 21, 5:04am

Wed Oct 21, 4:04am

Wed Oct 21, 3:04am

Wed Oct 21, 2:04am

Wed Oct 21, 1:04am

Wed Oct 21, 12:04am

Tue Oct 20, 11:05pm

Tue Oct 20, 10:04pm

Tue Oct 20, 9:04pm

Tue Oct 20, 8:05pm

Tue Oct 20, 7:04pm

Tue Oct 20, 6:04pm

Tue Oct 20, 5:05pm

Tue Oct 20, 4:04pm

Tue Oct 20, 3:05pm

Tue Oct 20, 2:07pm

Tue Oct 20, 1:04pm

Tue Oct 20, 12:04pm

Tue Oct 20, 11:04am

Tue Oct 20, 10:05am

Tue Oct 20, 9:04am

Tue Oct 20, 8:04am

Tue Oct 20, 7:04am

Tue Oct 20, 6:04am

Tue Oct 20, 5:04am

Tue Oct 20, 4:04am

Tue Oct 20, 3:04am

Tue Oct 20, 2:04am

Tue Oct 20, 1:04am

Tue Oct 20, 12:04am

Mon Oct 19, 11:04pm

Mon Oct 19, 10:04pm

Mon Oct 19, 9:04pm

Mon Oct 19, 8:04pm

Mon Oct 19, 7:04pm

Mon Oct 19, 6:04pm

Mon Oct 19, 5:04pm

Mon Oct 19, 4:04pm

Mon Oct 19, 3:04pm

Mon Oct 19, 2:04pm

Mon Oct 19, 1:05pm

Mon Oct 19, 12:04pm

Mon Oct 19, 11:04am

Mon Oct 19, 10:04am

Mon Oct 19, 9:04am

Mon Oct 19, 8:04am

Mon Oct 19, 7:04am

Mon Oct 19, 6:04am

Mon Oct 19, 5:04am

Mon Oct 19, 4:04am

Mon Oct 19, 3:04am

Mon Oct 19, 2:04am

Mon Oct 19, 1:04am

Mon Oct 19, 12:05am

Sun Oct 18, 11:04pm

Sun Oct 18, 10:04pm

Sun Oct 18, 9:04pm

Sun Oct 18, 8:04pm

Sun Oct 18, 7:05pm

Sun Oct 18, 6:04pm

Sun Oct 18, 5:05pm

Sun Oct 18, 4:05pm

Sun Oct 18, 3:04pm

Sun Oct 18, 2:05pm

Sun Oct 18, 1:04pm

Sun Oct 18, 12:04pm

Sun Oct 18, 11:04am

Sun Oct 18, 10:04am

Sun Oct 18, 9:04am

Sun Oct 18, 8:04am

Sun Oct 18, 7:04am

Sun Oct 18, 6:04am

Sun Oct 18, 5:04am

Sun Oct 18, 4:04am

Sun Oct 18, 3:04am

Sun Oct 18, 2:04am

Sun Oct 18, 1:04am

Sun Oct 18, 12:04am

Sat Oct 17, 11:05pm

Sat Oct 17, 10:04pm

Sat Oct 17, 9:04pm

Sat Oct 17, 8:04pm

Sat Oct 17, 7:04pm

Sat Oct 17, 6:04pm

Sat Oct 17, 5:05pm

Sat Oct 17, 4:04pm

Sat Oct 17, 3:04pm

Sat Oct 17, 2:05pm

Sat Oct 17, 1:05pm

Sat Oct 17, 12:04pm

Sat Oct 17, 11:05am

Sat Oct 17, 10:04am

Sat Oct 17, 9:04am

Sat Oct 17, 8:04am

Sat Oct 17, 7:04am

Sat Oct 17, 6:04am

Sat Oct 17, 5:04am

Sat Oct 17, 4:04am

Sat Oct 17, 3:04am

Sat Oct 17, 2:04am

Sat Oct 17, 1:05am

Sat Oct 17, 12:04am

Fri Oct 16, 11:05pm

Fri Oct 16, 10:04pm

Fri Oct 16, 9:05pm

Fri Oct 16, 8:04pm

Fri Oct 16, 7:05pm

Fri Oct 16, 6:04pm

Fri Oct 16, 5:04pm

Fri Oct 16, 4:05pm

Fri Oct 16, 3:04pm

Fri Oct 16, 2:04pm

Fri Oct 16, 1:04pm

Fri Oct 16, 12:04pm

Fri Oct 16, 11:05am

Fri Oct 16, 10:04am

Fri Oct 16, 9:04am

Fri Oct 16, 8:04am

Fri Oct 16, 7:04am

Fri Oct 16, 6:04am

Fri Oct 16, 5:04am

Fri Oct 16, 4:04am

Fri Oct 16, 3:04am

Fri Oct 16, 2:04am

Fri Oct 16, 1:04am

Fri Oct 16, 12:04am

Thu Oct 15, 11:04pm

Thu Oct 15, 10:04pm

Thu Oct 15, 9:05pm

Thu Oct 15, 8:04pm

Meta data:

ID: 6eba3584-fb2d-4f4f-bc86-edf8d8706118
Link: https://api.weather.gov/products/6eba3584-fb2d-4f4f-bc86-edf8d8706118